Location: *
(53.7931°N, 9.9819°E)
Time: 03:34:26
(UTC+00:00)

Daily predictions for brighter satellites

Satellite Brightness Start Highest point End
(mag) Time Altitude Azimuth Time Altitude Azimuth Time Altitude Azimuth
ATLAS 5 CENTAUR R/B 4.2 03:01:21 19° ENE 03:01:21 19° ENE 03:02:56 10° ENE
CZ-4C R/B 3.3 03:14:58 54° SSE 03:14:58 54° SSE 03:21:01 10° SE
CZ-2C R/B 4.4 03:28:39 10° NNE 03:30:06 19° NNE 03:30:06 19° NNE
Nadezhda 4 Rocket 4.1 03:40:25 50° NNE 03:42:04 70° ENE 03:48:12 10° SSE
USA 234 3.8 03:44:13 10° ENE 03:50:37 53° SE 03:52:36 40° S
Cosmos 1607 3.8 03:51:03 83° E 03:51:03 83° E 03:57:05 10° NE
Cosmos 1140 Rocket 4.4 03:53:34 39° SSE 03:53:34 39° SSE 03:56:49 10° SSE
Cosmos 2297 Rocket 2.8 03:55:50 46° NNE 03:55:50 46° NNE 03:59:51 10° NNE
COSMO-SKYMED 1 3.8 03:51:08 10° SE 03:54:02 38° ESE 03:54:02 38° ESE
Cosmos 2227 Rocket 2.7 03:59:49 50° N 03:59:49 50° N 04:04:05 10° NNE
Okean O Rocket 4.3 03:55:58 10° NE 03:59:02 18° E 04:02:05 10° SE
MSX 4.2 03:56:44 10° NNE 04:01:01 50° N 04:01:01 50° N
Cosmos 1703 Rocket 4.3 04:03:22 52° E 04:03:22 52° E 04:07:24 10° SSE
ALOS 4.2 04:01:08 10° NNE 04:05:13 29° E 04:09:17 10° SSE
NOSS 2-1 (E) 4.2 04:10:54 70° SW 04:10:54 70° SW 04:18:00 10° SE
Cosmos 2219 4.1 04:14:59 33° N 04:14:59 33° N 04:18:41 10° NNE
Cosmos 1943 3.1 04:15:28 62° NNW 04:16:26 83° ENE 04:22:04 10° SSE
Meteor 2-11 Rocket 4.3 04:14:18 10° S 04:20:25 89° WNW 04:26:36 10° NNE
ATLAS CENTAUR R/B 3.1 04:24:15 24° NNE 04:24:29 24° NNE 04:27:59 10° ENE
Cosmos 2082 Rocket 4.3 04:22:56 13° N 04:24:50 16° NNE 04:28:08 10° NE
Cosmos 2034 Rocket 3.9 04:21:45 10° SSW 04:28:05 81° W 04:34:31 10° N
Cosmos 1603 3.7 04:35:59 55° W 04:36:47 61° WSW 04:42:23 10° SSE
Cosmos 1624 Rocket 3.9 04:35:03 22° SSW 04:38:38 89° WNW 04:44:01 10° NNE
Cosmos 2195 Rocket 4.4 04:34:48 10° NNW 04:41:11 85° W 04:47:32 10° S
ATLAS 5 CENTAUR R/B 1.9 04:42:53 52° NNW 04:42:57 52° NNW 04:48:00 10° NE
SKYMED 2 3.9 04:39:12 10° S 04:42:42 50° SW 04:42:42 50° SW
Cosmos 676 Rocket 4.2 04:43:37 49° WSW 04:43:37 49° WSW 04:48:36 10° S
Cosmos 2056 Rocket 3.3 04:40:47 23° SSW 04:44:00 84° WNW 04:49:11 10° NNE
Cosmos 2082 3.8 04:44:17 49° WNW 04:44:59 52° NW 04:50:30 10° NNE
Cosmos 1092 Rocket 3.9 04:41:58 10° NNW 04:48:06 67° W 04:54:11 10° S
Cosmos 1954 Rocket 4.3 04:53:26 44° W 04:53:41 44° WSW 04:58:41 10° S
STARLINK 1041 4.5 04:54:38 29° S 04:54:38 29° S 04:57:12 10° SE
Okean 1 3.1 04:53:54 49° NNW 04:54:55 83° W 04:58:53 10° S
MOS 1-B 4.4 04:50:40 10° NNE 04:56:30 84° ESE 05:02:17 10° SSW
STARLINK 1038 4.5 04:57:30 29° SSW 04:57:30 29° SSW 05:00:09 10° SSE
Okean 1-7 3.0 04:57:01 50° NW 04:57:47 58° W 05:02:06 10° S
STARLINK 1046 4.5 05:00:21 28° SSW 05:00:21 28° SSW 05:03:04 10° SSE
Cosmos 1464 Rocket 4.3 04:58:52 31° WSW 05:00:54 39° WNW 05:06:39 10° N
CZ-4C R/B 3.8 05:00:12 27° WSW 05:01:01 28° WSW 05:07:31 10° SSW
STARLINK 1039 4.5 05:03:13 28° SSW 05:03:13 28° SSW 05:06:00 10° SSE
Cosmos 1420 Rocket 4.2 04:58:39 10° SSW 05:03:49 74° ESE 05:09:01 10° NNE
Cosmos 1515 4.2 05:02:08 16° N 05:05:07 60° ENE 05:08:53 10° SSE
Cosmos 1933 Rocket 3.8 05:07:35 43° WNW 05:07:35 43° WNW 05:11:36 10° N
Cosmos 1340 3.5 05:04:25 10° S 05:08:05 52° E 05:11:46 10° NNE
Meteor 1-20 Rocket 4.2 05:02:42 10° SSW 05:08:34 84° WNW 05:14:27 10° NNE
Helios 1A Rocket 3.3 05:04:51 10° NNE 05:08:53 65° ESE 05:12:54 10° S
Cosmos 724 4.2 05:03:51 15° SW 05:08:59 80° NW 05:14:57 10° NE
CZ-2C R/B 3.6 05:07:15 10° N 05:09:29 22° NNW 05:09:29 22° NNW
Cosmos 1741 Rocket 3.9 05:08:25 25° NW 05:11:26 70° WSW 05:16:37 10° SSE
CZ-4B DEB 4.1 05:06:51 10° NNE 05:12:24 84° WNW 05:17:57 10° SSW
Cosmos 1602 3.7 05:10:48 10° S 05:14:37 85° E 05:18:28 10° NNE
Meteor 1-18 Rocket 4.2 05:11:40 12° NNW 05:16:40 57° W 05:22:05 10° S
Cosmos 1484 Rocket 3.2 05:15:37 10° N 05:19:22 41° WNW 05:23:03 10° SW
IDEFIX/ARIANE 42P 4.5 05:19:09 10° NNW 05:20:03 13° NNW 05:20:03 13° NNW
Cosmos 2263 Rocket 2.2 05:17:00 10° SSW 05:22:36 82° ESE 05:28:12 10° NNE
Cosmos 2221 Rocket 3.5 05:20:01 13° NNW 05:23:58 70° W 05:28:21 10° S
PSLV R/B 4.3 05:22:00 10° N 05:25:49 39° WNW 05:29:40 10° SW
CZ-2C R/B 4.4 05:21:33 10° SE 05:26:11 57° ENE 05:30:54 10° N
COSMOS 2406 4.3 05:24:21 11° NNW 05:29:27 40° NE 05:34:47 10° ESE
Cosmos 1452 Rocket 3.5 05:25:21 10° SSW 05:30:39 88° WNW 05:36:00 10° NNE
COSMO-SKYMED 1 3.8 05:28:20 10° SW 05:31:14 22° WSW 05:31:14 22° WSW
Cosmos 1850 Rocket 4.3 05:28:46 20° NW 05:32:11 49° WSW 05:37:18 10° S
NOAA 6 3.9 05:27:08 10° NNE 05:32:17 81° WNW 05:37:25 10° SSW
Cosmos 2266 Rocket 4.2 05:26:27 10° N 05:32:46 73° ENE 05:38:54 10° SSE
USA 234 3.2 05:27:22 10° ENE 05:33:56 82° NNW 05:39:57 13° WSW
SMAP 4.0 05:29:43 10° NNE 05:34:18 51° E 05:38:49 10° S
Meteor 2-13 Rocket 4.4 05:29:15 10° NNW 05:35:23 78° W 05:41:32 10° S
Radarsat Rocket 4.4 05:29:37 10° NNE 05:35:41 72° ESE 05:42:21 10° SSW
Okean O Rocket 1.5 05:31:29 10° N 05:35:51 68° WNW 05:40:13 10° SSW
Cosmos 2227 4.2 05:30:16 10° SW 05:36:01 69° NW 05:41:49 10° NNE
Cosmos 1833 Rocket 4.2 05:31:30 10° NNW 05:36:24 29° NE 05:41:17 10° E
Cosmos 1607 4.5 05:35:12 21° W 05:38:43 39° NNW 05:44:31 10° NE
Cosmos 2297 Rocket 3.4 05:37:40 20° NW 05:39:17 23° NNW 05:43:43 10° NNE
ADEOS Rocket 3.2 05:32:52 10° SSE 05:39:49 90° SW 05:46:05 10° NNW
Cosmos 1932 4.5 05:34:25 10° SW 05:40:48 72° NW 05:47:20 10° NE
FENGYUN 3A 3.7 05:36:49 10° N 05:42:07 57° WNW 05:47:22 10° SW
ALOS 2.5 05:38:21 10° N 05:42:51 46° WNW 05:47:18 10° SW
Cosmos 2227 Rocket 3.4 05:41:40 19° WNW 05:43:31 23° NNW 05:47:58 10° NNE
CZ-4B R/B 3.2 05:38:01 10° NNE 05:43:35 73° WNW 05:49:11 10° SSW
Cosmos 2026 Rocket 4.5 05:43:42 10° NNW 05:49:13 36° W 05:54:48 10° SSW
SJ-7 4.3 05:45:25 10° N 05:49:27 65° WNW 05:53:24 10° SSW
Okean-O 4.0 05:46:56 10° NNE 05:51:09 42° E 05:55:22 10° S
Cosmos 1733 Rocket 3.1 05:49:57 10° S 05:54:17 82° E 05:58:38 10° NNE
Cosmos 405 2.9 05:50:45 10° NNW 05:54:19 75° W 05:57:51 10° S
Okean 3 3.8 05:52:08 10° NNW 05:56:06 43° W 06:00:05 10° SSW
Cosmos 1844 Rocket 4.2 05:51:13 10° S 05:56:23 40° ESE 06:01:34 10° NE
PAYLOAD B 4.4 05:51:41 10° N 05:56:58 47° WNW 06:02:14 10° SW
Cosmos 1346 Rocket 2.9 05:55:30 10° SSW 05:59:17 50° WNW 06:03:06 10° N
Meteor 1-14 Rocket 4.5 05:53:49 10° SSW 05:59:38 53° WNW 06:05:31 10° N
Cosmos 1943 4.4 05:57:19 16° WNW 05:59:51 22° WSW 06:03:58 10° SSW
Cosmos 1869 Rocket 4.2 05:59:00 10° SW 06:02:56 33° WNW 06:06:53 10° N
H-2A R/B 2.6 05:59:34 10° NNE 06:03:18 82° WNW 06:07:04 10° SSW
ATLAS CENTAUR R/B 1.7 06:00:27 14° NW 06:04:13 64° NE 06:08:14 10° ESE
Cosmos 2279 Rocket 4.0 05:58:49 10° SSW 06:04:56 59° WNW 06:11:07 10° N
AQUARIUS 4.2 06:01:16 10° NNE 06:05:49 88° ESE 06:10:18 10° SSW
Cosmos 968 Rocket 4.2 06:01:37 10° NNW 06:06:42 51° ENE 06:11:41 10° SE
BREEZE-M DEB (TANK) 3.4 06:03:47 10° WSW 06:09:40 46° S 06:12:11 10° ESE
Cosmos 2082 Rocket 3.5 06:05:39 10° NNW 06:10:46 33° NE 06:15:49 10° ESE
Cosmos 1634 Rocket 4.5 06:06:22 10° SW 06:12:02 36° WNW 06:17:44 10° N
Cosmos 1655 Rocket 4.3 06:08:50 10° NNW 06:14:43 45° W 06:20:35 10° SSW
Cosmos 1975 Rocket 3.9 06:12:39 10° N 06:17:00 53° ENE 06:21:22 10° SSE
Cosmos 1674 Rocket 3.8 06:14:13 10° NNW 06:18:27 49° W 06:22:37 10° S
CZ-4 R/B 2.9 06:15:44 10° NNE 06:19:24 40° E 06:23:06 10° S
NOAA 12 4.3 06:15:38 10° NNE 06:20:56 77° ESE 06:26:10 10° SSW
Timation 1 Rocket 4.4 06:15:06 10° SW 06:20:58 59° NW 06:26:55 10° NNE
Cosmos 1331 Rocket 4.1 06:17:38 10° SSW 06:22:48 86° ESE 06:28:02 10° NNE
YAOGAN 1 4.3 06:19:10 10° NNE 06:23:12 36° E 06:27:13 10° SSE
Meteor 2-19 Rocket 4.5 06:17:38 10° NNW 06:23:51 85° W 06:30:02 10° S
IRIDIUM 104 4.4 06:19:27 10° N 06:24:39 65° W 06:29:47 10° S
Meteor 2-4 Rocket 4.3 06:20:40 10° NNW 06:25:38 34° W 06:30:28 10° SSW
Meteor 1-5 Rocket 4.3 06:21:59 10° SSW 06:27:54 69° WNW 06:33:45 10° N
CZ-2C R/B 3.3 06:22:53 10° SE 06:28:02 56° ENE 06:33:08 10° N
USA 81 4.1 06:23:01 10° NNW 06:28:16 67° W 06:33:29 10° S
ATLAS 5 CENTAUR R/B 3.0 06:24:26 10° WNW 06:28:37 29° N 06:33:26 10° NE
IRIDIUM 114 4.5 06:28:38 10° NNW 06:33:44 55° W 06:38:48 10° SSW
Cosmos 1110 Rocket 3.9 06:28:36 10° SSW 06:33:48 74° WNW 06:39:00 10° NNE
CORIOLIS 4.2 06:29:24 10° NNE 06:34:50 72° WNW 06:40:12 10° SSW
SAR-Lupe-2 4.1 06:32:09 10° S 06:35:33 39° W 06:38:58 10° NNW
Cosmos 1378 Rocket 4.0 06:34:25 10° NNW 06:38:35 43° W 06:42:46 10° SSW
Cosmos 1486 Rocket 4.1 06:36:49 10° NNW 06:42:06 65° WSW 06:47:18 10° SSE
Helios 1A Rocket 4.2 06:40:48 10° NNW 06:43:40 19° WNW 06:46:32 10° WSW
Cosmos 1066 Rocket 4.3 06:38:17 10° NNW 06:43:53 66° W 06:49:18 10° S
Cosmos 1340 4.1 06:41:19 10° WSW 06:44:01 19° WNW 06:46:45 10° NNW
Cosmos 304 Rocket 4.2 06:39:31 10° SSW 06:44:16 72° ESE 06:49:05 10° NNE
Cosmos 1500 3.8 06:41:35 10° SW 06:45:08 35° WNW 06:48:41 10° N
